RH
88 88 89 89 89 88 88 87 87 85 85 85 86 86 86 86 88 68 19 19 26 75 68 46 32 42 46 53 51 47 42 46 36 34 26 24 26 22 28 29 32 31 34 33 54
89 90 90 90 90 90 90 89 86 86 85 85 86 86 85 86 59 31 30 59 68 78 40 25 37 40 49 49 52 51 44 36 31 30 30 28 25 22 26 26 29 32 37 51 60
91 91 91 90 89 90 90 90 88 87 86 86 86 84 85 84 26 6 56 69 74 52 26 22 33 40 39 41 48 53 42 37 30 28 30 29 28 22 24 24 20 28 28 56 61
91 91 91 91 90 90 89 88 89 88 86 86 86 85 88 67 11 14 69 75 76 25 19 24 36 36 34 40 39 49 41 37 27 26 28 25 25 25 23 18 13 22 24 50 59
91 91 91 91 91 91 90 89 89 88 86 86 86 88 74 13 5 49 72 74 50 18 17 22 31 28 27 27 28 40 29 21 19 18 16 15 17 19 23 15 14 23 32 41 50
91 91 91 91 91 90 89 89 90 89 86 87 88 88 35 5 16 41 44 44 31 16 15 17 20 20 23 27 22 18 17 14 14 15 16 17 15 19 10 11 10 24 32 34 38
91 91 91 91 90 89 88 89 89 87 87 87 87 66 22 6 20 33 23 21 25 16 16 16 16 22 22 21 15 12 16 14 13 14 11 16 12 12 10 10 12 27 32 36 41
92 91 91 91 90 88 89 91 88 86 86 85 85 53 10 14 27 26 20 18 20 16 17 17 17 20 20 15 12 14 16 14 11 10 10 10 11 8 9 10 10 21 34 41 45
92 92 92 91 90 88 90 89 86 83 83 84 53 35 13 30 18 17 16 17 20 17 18 16 17 16 10 13 12 14 13 14 12 11 11 11 11 10 9 10 12 12 30 40 42
92 92 92 91 90 88 91 85 86 74 65 57 41 25 16 14 12 12 20 14 12 21 19 19 15 16 12 10 13 13 12 12 15 11 11 13 12 11 14 15 19 20 24 36 42
92 92 92 90 90 88 60 30 19 16 16 13 14 18 15 10 11 10 15 15 9 9 11 15 20 16 12 14 12 13 14 14 12 11 13 13 12 16 20 20 27 32 37 38 40
93 92 92 91 87 90 48 21 24 22 19 14 14 14 13 12 10 8 9 9 10 11 12 12 12 11 12 12 14 14 15 14 13 12 14 12 12 16 24 28 30 31 35 36 34
93 92 92 90 91 52 33 25 28 18 19 15 13 12 10 10 9 8 7 10 11 13 12 13 10 12 12 13 14 14 14 15 13 13 10 13 15 26 24 27 28 29 32 32 36
93 92 92 93 54 48 23 30 34 22 18 14 11 10 10 10 8 8 7 9 11 11 14 12 10 12 14 14 14 14 13 13 13 12 13 13 13 20 32 26 24 26 28 31 38
93 91 91 92 58 37 35 39 24 19 21 13 10 8 8 8 8 8 8 8 10 11 12 12 11 13 14 14 12 14 11 13 12 12 14 14 12 16 34 29 27 28 32 33 38
92 91 89 75 66 45 42 36 20 22 25 12 10 10 9 8 8 8 8 8 10 11 12 11 11 12 12 12 14 15 15 17 16 13 16 17 15 14 17 30 32 33 34 37 38
91 91 85 64 35 47 43 21 22 23 19 16 14 13 13 15 12 12 11 12 12 15 16 13 15 13 13 13 14 15 15 18 19 18 18 22 18 19 27 35 36 36 36 38 43
93 91 78 59 50 54 26 21 27 24 24 20 17 14 16 16 15 14 13 14 16 14 16 15 17 16 15 15 17 18 18 19 29 23 20 24 24 20 33 36 38 40 39 43 44
91 52 43 37 48 38 22 23 26 25 22 23 17 17 18 16 16 16 18 17 16 17 17 20 20 15 16 15 16 20 21 20 26 30 24 21 25 28 36 34 35 33 36 40 40
75 54 38 37 42 25 25 36 26 21 22 22 21 18 21 20 19 19 20 19 16 15 17 21 21 16 17 16 18 19 20 26 28 37 38 29 34 26 26 26 27 34 37 44 43
55 34 29 37 27 27 29 29 26 21 22 24 22 21 20 21 20 21 20 19 19 17 17 17 22 20 19 20 22 21 23 30 26 31 30 34 26 28 29 31 37 38 40 48 49
60 20 31 30 26 40 32 31 42 24 23 23 23 23 20 22 22 22 22 22 20 19 19 23 20 25 21 20 21 22 26 26 29 37 32 34 29 18 27 32 41 43 48 49 50
76 62 39 32 28 35 39 33 31 28 28 27 25 22 21 22 25 24 24 22 23 22 23 23 26 27 27 22 23 25 25 29 33 37 36 36 28 22 24 26 36 47 45 56 60
66 41 44 45 48 43 42 40 35 30 28 28 27 22 23 25 28 25 24 24 23 28 52 37 30 31 27 29 26 30 26 27 29 33 31 29 29 25 26 40 50 53 58 62 63
70 63 69 53 51 48 47 42 39 37 34 29 25 27 28 29 31 31 27 26 25 37 29 28 35 33 26 25 26 25 24 22 31 28 32 27 26 28 40 56 57 59 61 61 62
70 71 65 64 67 52 57 52 44 42 40 34 35 31 25 30 30 28 25 28 27 24 26 30 32 36 30 23 23 26 23 24 24 24 26 29 34 38 55 53 56 56 56 60 62
74 72 68 76 63 53 47 54 50 46 39 34 39 36 28 28 31 28 21 23 24 26 28 32 32 38 33 28 28 31 27 26 25 26 31 37 38 48 49 51 57 56 53 56 62
Wind_Speed
19 19 19 18 17 17 17 16 16 15 14 13 11 10 8 7 5 3 7 4 7 14 15 12 5 8 7 3 2 1 0 2 1 2 6 7 10 4 2 4 5 3 4 4 23
20 19 19 19 18 17 17 16 16 15 13 12 11 10 7 3 4 8 7 9 15 17 14 14 11 10 4 2 3 3 1 2 2 3 7 10 12 11 5 6 5 7 7 15 20
19 19 19 20 20 19 18 16 14 13 12 11 10 8 5 3 3 1 5 12 18 9 10 7 13 6 3 2 4 2 4 1 7 9 9 5 6 6 5 9 13 13 8 16 20
20 21 21 21 21 21 19 18 15 13 12 9 7 5 3 3 4 3 6 15 16 5 10 12 8 6 4 5 5 5 8 9 8 4 3 6 4 6 11 15 12 5 10 20 22
21 22 22 22 21 22 21 19 16 13 10 6 5 4 3 2 2 5 12 15 13 8 8 6 12 5 4 3 4 9 7 6 10 10 11 11 15 11 14 17 13 6 13 20 21
21 22 23 23 22 21 21 18 14 10 5 4 4 4 3 3 2 8 14 14 8 4 6 7 7 5 1 3 5 2 8 11 10 13 8 9 12 2 7 6 9 8 16 19 20
22 23 24 24 23 22 21 18 11 4 3 4 5 3 2 4 2 9 11 7 6 6 4 4 2 5 2 4 4 6 10 14 4 2 1 4 7 5 6 10 10 5 12 17 18
21 23 24 25 24 22 20 16 5 5 7 7 6 2 0 2 7 7 3 5 6 3 2 1 5 3 2 2 1 4 2 5 3 5 3 4 4 8 10 9 10 6 9 14 17
22 23 24 25 25 22 19 9 8 9 9 8 2 2 5 5 3 5 7 4 7 3 4 4 2 1 1 2 3 2 5 6 7 4 4 4 8 10 16 13 7 9 8 10 12
23 23 24 25 25 20 16 1 7 5 3 4 3 3 2 3 2 5 5 3 2 6 3 1 2 2 2 4 2 6 6 4 9 2 5 5 10 12 13 8 11 8 7 7 7
23 24 25 26 25 20 5 2 2 2 1 2 2 3 4 5 3 3 4 7 3 3 3 2 5 5 2 5 2 4 5 10 8 3 5 7 8 9 10 9 15 16 13 7 4
23 24 25 27 25 20 2 5 3 2 6 1 4 6 5 3 1 4 8 5 3 3 4 3 6 5 5 3 5 5 6 6 8 3 3 6 5 7 9 7 9 11 13 14 8
24 23 25 28 27 3 4 6 4 5 2 4 3 3 1 6 2 7 10 4 3 4 6 4 0 2 5 3 6 4 6 3 5 5 2 7 3 5 3 2 4 7 6 10 11
25 23 22 30 1 3 1 2 5 5 1 3 1 3 4 2 1 2 8 3 3 4 5 4 1 3 1 1 6 2 4 6 4 3 4 5 3 2 3 6 7 8 9 9 10
26 23 18 10 5 3 4 8 1 4 3 1 2 3 2 2 1 2 3 2 4 5 4 2 2 2 3 4 3 3 2 1 4 1 2 3 4 1 2 2 3 8 12 12 10
27 25 19 2 2 4 8 7 3 3 3 2 2 2 2 3 2 2 2 2 2 3 1 3 3 1 1 1 2 3 1 3 2 1 7 2 5 5 3 0 1 4 9 12 15
28 26 8 1 3 6 7 2 2 2 2 4 3 4 2 4 3 4 1 3 3 3 2 1 1 2 2 2 3 3 5 3 4 4 6 3 5 8 1 2 3 5 7 9 10
30 20 1 3 6 6 2 2 2 2 3 2 3 1 3 5 3 4 3 3 4 1 2 3 5 1 5 2 1 3 4 4 6 6 6 2 5 1 1 1 4 6 7 9 10
24 4 1 5 1 2 1 1 2 1 2 4 1 2 2 2 2 1 5 3 3 1 2 3 3 2 5 4 3 3 1 4 2 1 4 3 3 5 2 6 7 8 6 7 9
6 5 3 11 0 2 2 3 2 2 2 1 1 0 2 2 1 2 2 3 1 2 3 3 2 1 2 1 7 2 5 3 2 3 5 2 4 2 4 6 9 10 8 6 8
2 3 2 9 2 3 2 2 2 2 2 2 1 2 2 2 0 2 2 2 1 2 2 1 2 3 5 1 0 5 4 4 0 4 4 5 5 3 6 6 11 12 10 8 8
4 2 5 6 2 1 2 0 4 4 3 2 0 1 2 4 3 2 3 2 6 2 1 1 2 4 1 2 3 0 2 3 4 1 3 6 8 9 8 10 10 12 9 8 9
4 4 3 4 1 2 0 1 2 5 5 5 2 3 1 2 2 1 3 3 5 3 1 4 1 4 3 5 4 4 4 2 3 2 10 11 9 3 10 14 12 10 11 12 11
3 2 2 4 2 2 1 2 2 4 2 4 3 1 1 2 3 2 2 2 4 3 5 3 3 5 8 7 1 5 6 7 7 8 13 14 21 18 17 12 9 10 10 12 12
2 2 2 2 4 3 0 0 1 2 3 5 3 7 2 1 1 0 1 1 2 4 2 0 4 4 6 7 6 11 14 16 15 17 15 21 20 17 13 8 8 10 11 12 14
2 1 1 1 3 1 1 1 2 0 2 2 3 8 1 2 3 2 1 1 2 1 1 1 3 3 9 11 12 17 18 21 21 20 18 18 19 10 2 5 8 9 10 13 13
1 1 3 2 1 2 2 3 3 3 2 2 6 5 2 2 7 9 7 6 4 3 2 3 3 5 14 5 8 11 15 14 9 9 9 11 8 3 10 10 9 11 14 12 12
Wind_Direction
344 340 336 331 328 323 317 316 318 321 318 317 317 313 315 318 309 170 230 195 178 159 128 132 120 147 178 198 175 163 189 194 181 189 340 320 304 342 129 188 188 252 200 119 149
340 334 330 328 325 318 315 315 317 313 309 308 310 312 315 305 213 230 252 154 138 150 142 157 151 156 186 197 183 251 250 224 227 273 300 308 290 294 271 288 235 222 107 129 152
333 330 327 326 325 320 318 314 311 306 302 301 303 307 305 259 233 210 177 158 154 151 142 144 141 156 178 204 183 164 252 279 289 286 276 273 277 288 278 280 257 223 194 158 167
332 329 326 325 324 322 319 315 310 303 299 294 292 295 278 222 140 54 154 155 161 156 134 134 151 162 188 200 194 240 240 259 293 296 265 263 268 267 270 262 293 255 199 177 183
332 329 326 328 327 322 319 314 306 297 291 277 265 255 208 188 273 42 126 144 158 150 151 141 164 164 203 218 198 233 270 267 262 276 272 274 271 287 266 275 301 252 184 198 190
332 329 329 329 329 325 321 317 306 292 265 241 214 197 218 142 78 125 125 140 172 148 152 161 189 204 242 227 240 281 277 276 268 258 250 266 271 315 287 318 316 220 205 206 208
332 330 329 329 332 330 326 325 316 271 197 179 177 221 223 92 63 140 137 153 175 174 168 211 221 215 176 271 339 314 316 318 67 117 269 244 254 216 305 313 301 232 214 214 214
332 331 330 329 333 336 333 332 348 115 132 143 164 242 158 60 123 142 152 114 146 176 281 290 204 265 277 329 317 310 290 325 359 354 67 268 321 303 4 346 341 310 226 215 214
333 331 330 329 333 339 337 352 78 97 117 137 171 286 111 134 206 170 179 114 147 192 251 89 139 16 245 284 281 15 333 319 317 4 333 324 300 8 345 345 353 317 255 224 223
333 331 330 331 331 340 333 348 106 112 134 209 237 196 149 136 122 128 179 154 142 131 136 161 82 218 140 223 346 321 315 295 281 313 257 261 316 357 13 19 357 2 324 251 224
334 333 331 331 330 334 327 238 331 143 63 347 326 291 330 308 245 154 158 155 146 139 174 51 233 219 202 227 301 289 281 295 281 253 298 14 353 10 10 27 37 31 15 351 285
336 333 331 329 330 321 224 69 92 340 316 235 254 273 262 289 67 117 159 153 171 174 133 158 247 240 260 236 230 234 275 270 291 20 257 10 359 340 19 30 33 27 30 27 27
333 335 333 326 322 342 12 104 10 165 261 303 220 242 190 180 175 175 177 141 156 168 191 224 4 339 232 215 217 206 224 216 276 332 189 317 173 11 355 356 42 53 38 32 35
332 336 335 325 299 343 87 17 324 198 10 22 110 147 143 218 102 197 183 144 154 201 173 239 289 273 305 231 201 264 235 256 254 229 323 343 320 218 346 4 12 12 37 37 17
329 333 335 327 316 276 15 332 59 208 110 11 89 99 119 230 318 106 184 143 194 175 200 62 227 165 60 46 212 20 25 207 305 248 288 171 254 133 232 201 13 351 356 8 17
327 331 336 128 230 288 328 322 199 235 129 97 54 3 173 27 31 8 148 73 66 166 263 289 336 276 344 75 38 297 209 76 63 304 250 19 271 267 221 259 274 330 344 344 341
327 328 323 219 359 337 319 198 217 230 330 24 16 7 91 28 71 13 129 131 235 206 201 242 62 327 21 139 24 34 7 328 249 237 282 16 252 273 292 257 287 311 324 322 326
327 321 199 248 303 310 239 186 198 75 21 2 4 52 91 1 65 23 91 92 77 132 151 251 172 11 358 36 52 49 337 303 282 268 294 120 246 80 314 246 288 293 308 322 342
321 330 287 348 274 270 237 132 90 99 320 329 318 99 75 52 336 102 52 58 22 10 239 173 167 319 29 20 321 111 219 9 274 109 260 271 254 249 201 264 265 283 311 328 333
329 330 298 344 262 290 71 104 151 242 316 217 157 172 127 20 116 44 88 24 62 41 233 139 204 207 163 227 64 12 134 207 149 265 264 247 277 252 347 333 323 301 306 305 328
342 342 29 345 256 42 88 96 269 274 281 221 183 157 136 154 120 110 101 71 30 66 52 119 274 152 206 109 46 161 162 73 338 262 274 277 252 234 282 308 306 305 314 308 314
343 294 5 326 36 29 95 271 340 356 11 43 308 257 222 169 177 154 133 71 352 294 320 79 232 255 291 338 285 244 130 208 286 189 259 290 272 283 278 309 302 293 301 318 317
355 294 335 307 136 102 25 3 354 9 8 11 12 4 0 143 175 158 135 104 25 66 157 177 213 255 198 160 143 242 191 140 109 252 257 282 282 206 292 299 302 300 322 323 321
312 327 350 52 28 84 68 37 64 9 111 357 329 28 32 104 51 165 164 74 28 72 72 118 146 269 283 302 356 237 251 222 243 267 285 265 286 292 296 316 343 331 322 317 318
353 71 12 31 76 55 169 63 87 22 19 9 99 49 357 114 71 79 353 317 113 4 110 238 254 219 255 257 237 265 265 270 241 256 270 288 292 281 293 316 329 319 314 313 313
345 323 131 7 310 295 17 95 145 351 295 47 49 339 333 67 26 62 285 246 286 131 9 37 272 227 270 275 266 265 267 262 267 267 279 268 272 294 327 302 312 323 322 310 309
34 242 285 59 98 214 152 129 88 336 172 280 2 314 270 88 314 286 267 288 290 273 285 251 258 252 281 316 282 261 255 269 250 248 269 272 314 341 313 318 321 314 308 301 306